NORTHEAST SUFFOLK  -  Rip Current Statement Rip Current Statement        NORTHERN NASSAU  -  Rip Current Statement Rip Current Statement        NORTHERN QUEENS  -  Rip Current Statement Rip Current Statement     Air Quality Alert Air Quality Alert        NORTHWEST SUFFOLK  -  Rip Current Statement Rip Current Statement        SOUTHEAST SUFFOLK  -  Rip Current Statement Rip Current Statement        SOUTHERN NASSAU  -  Rip Current Statement Rip Current Statement        SOUTHERN QUEENS  -  Rip Current Statement Rip Current Statement     Air Quality Alert Air Quality Alert        SOUTHWEST SUFFOLK  -  Rip Current Statement Rip Current Statement      

Active alerts

Northern Queens
  Details for Northern Queens Rip Current Statement  +1 additional alert
Southern Queens
  Details for Southern Queens Rip Current Statement  +1 additional alert
Northern Nassau
  Details for Northern Nassau Rip Current Statement
Southern Nassau
  Details for Southern Nassau Rip Current Statement
Northwest Suffolk
  Details for Northwest Suffolk Rip Current Statement
Southwest Suffolk
  Details for Southwest Suffolk Rip Current Statement
Northeast Suffolk
  Details for Northeast Suffolk Rip Current Statement
Southeast Suffolk
  Details for Southeast Suffolk Rip Current Statement


WXM80 ListenWXM80 Stop

You find our weather info also at:

UK Metoffice

WeatherCloud

Weather Underground

Northeastern Weather Network

AWEKAS

Citizen Weather Observer Program (CWOP)

HAMweather, WeatherForYou, PWS Weather


Weather Underground History page Text

Daily Summary for April 4, 2016 Units:  English    Metric   Both
« Previous Day
Next Day »
Daily Weekly Monthly Yearly Custom
  High: Low: Average:
Temperature: 42.4 °F 30.0 °F 35.4 °F
Dew Point: 40.9 °F 18.0 °F 29.7 °F
Humidity: 96 % 50 % 81 %
Wind Speed: 12.4 mph 0.2 mph 5.4 mph
Wind Gust: 19.6 mph - -
Wind:- - ENE
Pressure: 30.05 in 29.79 in -
Precipitation: 0.09 in    
Historical Graphs
 
 
Tabular Data for April 4, 2016
Time Temperature Dew Point Pressure Wind Wind Speed Wind Gust Humidity Rainfall Rate (Hourly)
00:03 35.1 °F 19.7 °F 30.04 in NE 1.5 mph 3.5 mph 53 % 0.00 in
00:08 35.0 °F 19.1 °F 30.05 in NNE 3.9 mph 6.9 mph 52 % 0.00 in
00:13 35.0 °F 18.7 °F 30.05 in NE 1.0 mph 1.2 mph 51 % 0.00 in
00:18 34.9 °F 19.0 °F 30.05 in NNE 3.3 mph 4.0 mph 52 % 0.00 in
00:23 34.9 °F 18.6 °F 30.05 in NNE 3.0 mph 4.0 mph 51 % 0.00 in
00:28 34.8 °F 18.9 °F 30.04 in NNE 1.5 mph 4.6 mph 52 % 0.00 in
00:34 34.8 °F 18.5 °F 30.04 in NE 0.7 mph 2.3 mph 51 % 0.00 in
00:39 34.8 °F 19.8 °F 30.04 in NE 1.3 mph 1.3 mph 54 % 0.00 in
00:44 34.8 °F 19.4 °F 30.04 in NE 2.8 mph 5.8 mph 53 % 0.00 in
00:49 34.8 °F 18.5 °F 30.04 in ENE 1.5 mph 3.5 mph 51 % 0.00 in
00:59 34.8 °F 18.5 °F 30.04 in NNE 3.2 mph 6.0 mph 51 % 0.00 in
01:04 34.8 °F 18.5 °F 30.02 in ENE 3.9 mph 6.9 mph 51 % 0.00 in
01:09 34.8 °F 18.9 °F 30.02 in ENE 3.5 mph 4.0 mph 52 % 0.00 in
01:14 34.8 °F 18.9 °F 30.02 in NE 2.8 mph 4.6 mph 52 % 0.00 in
01:19 34.8 °F 18.0 °F 30.03 in ENE 3.2 mph 6.9 mph 50 % 0.00 in
01:25 34.8 °F 18.0 °F 30.04 in NE 4.1 mph 7.0 mph 50 % 0.00 in
01:30 34.9 °F 18.6 °F 30.04 in NE 3.2 mph 4.6 mph 51 % 0.00 in
01:35 34.9 °F 19.0 °F 30.03 in ENE 3.0 mph 4.6 mph 52 % 0.00 in
01:40 34.9 °F 19.5 °F 30.03 in ENE 3.8 mph 6.9 mph 53 % 0.00 in
01:45 34.9 °F 19.5 °F 30.03 in ENE 2.3 mph 3.5 mph 53 % 0.00 in
01:50 35.0 °F 19.6 °F 30.03 in East 2.3 mph 3.5 mph 53 % 0.00 in
01:55 34.9 °F 18.6 °F 30.03 in ENE 3.4 mph 4.6 mph 51 % 0.00 in
02:00 35.0 °F 19.6 °F 30.03 in ENE 2.3 mph 5.0 mph 53 % 0.00 in
02:05 35.0 °F 20.0 °F 30.03 in ESE 1.5 mph 2.3 mph 54 % 0.00 in
02:10 35.1 °F 20.5 °F 30.03 in ESE 0.4 mph 3.5 mph 55 % 0.00 in
02:16 35.1 °F 20.5 °F 30.03 in East 1.3 mph 3.0 mph 55 % 0.00 in
02:21 35.1 °F 19.7 °F 30.03 in SE 1.3 mph 5.8 mph 53 % 0.00 in
02:31 35.1 °F 19.7 °F 30.03 in SE 2.0 mph 3.5 mph 53 % 0.00 in
02:36 35.1 °F 20.1 °F 30.02 in SE 1.7 mph 3.5 mph 54 % 0.00 in
02:41 35.1 °F 20.1 °F 30.02 in SE 2.0 mph 3.5 mph 54 % 0.00 in
02:46 35.0 °F 19.6 °F 30.02 in ESE 1.2 mph 3.5 mph 53 % 0.00 in
02:51 35.0 °F 19.1 °F 30.01 in ESE 2.2 mph 3.5 mph 52 % 0.00 in
03:01 34.8 °F 18.5 °F 30.01 in ESE 2.7 mph 5.8 mph 51 % 0.00 in
03:07 34.8 °F 18.9 °F 30.01 in ESE 1.5 mph 4.6 mph 52 % 0.00 in
03:12 34.8 °F 18.5 °F 30.01 in ESE 0.2 mph 3.5 mph 51 % 0.00 in
03:17 34.8 °F 19.4 °F 30.01 in ESE 3.1 mph 6.9 mph 53 % 0.00 in
03:22 34.7 °F 18.9 °F 30.01 in SE 3.4 mph 4.6 mph 52 % 0.00 in
03:27 34.7 °F 19.3 °F 30.00 in SE 1.9 mph 3.5 mph 53 % 0.00 in
03:32 34.7 °F 18.9 °F 30.00 in ESE 1.4 mph 3.5 mph 52 % 0.00 in
03:37 34.6 °F 19.2 °F 30.00 in ESE 0.2 mph 1.2 mph 53 % 0.00 in
03:42 34.6 °F 18.8 °F 30.00 in SE 2.9 mph 5.8 mph 52 % 0.00 in
03:47 34.6 °F 18.8 °F 30.00 in East 2.1 mph 5.0 mph 52 % 0.00 in
03:52 34.5 °F 20.0 °F 30.00 in ESE 0.7 mph 1.2 mph 55 % 0.00 in
03:58 34.5 °F 19.1 °F 29.99 in East 3.7 mph 5.0 mph 53 % 0.00 in
04:03 34.4 °F 19.0 °F 29.99 in East 1.6 mph 5.8 mph 53 % 0.00 in
04:08 34.4 °F 19.5 °F 29.99 in East 2.4 mph 4.6 mph 54 % 0.00 in
04:13 34.4 °F 19.0 °F 29.99 in East 2.3 mph 5.8 mph 53 % 0.00 in
04:18 34.4 °F 19.5 °F 29.99 in East 1.2 mph 2.3 mph 54 % 0.00 in
04:23 34.3 °F 19.4 °F 29.99 in East 2.0 mph 3.5 mph 54 % 0.00 in
04:28 34.3 °F 19.4 °F 29.99 in ESE 2.2 mph 3.5 mph 54 % 0.00 in
04:33 34.4 °F 19.5 °F 29.98 in East 2.1 mph 4.6 mph 54 % 0.00 in
04:38 34.4 °F 20.3 °F 29.98 in East 3.3 mph 5.8 mph 56 % 0.00 in
04:43 34.4 °F 20.3 °F 29.98 in East 2.3 mph 6.0 mph 56 % 0.00 in
04:49 34.4 °F 20.3 °F 29.97 in East 2.2 mph 5.8 mph 56 % 0.00 in
04:54 34.4 °F 20.7 °F 29.98 in East 2.3 mph 4.6 mph 57 % 0.00 in
04:59 34.4 °F 20.7 °F 29.97 in East 4.3 mph 5.0 mph 57 % 0.00 in
05:09 34.5 °F 21.6 °F 29.97 in ESE 0.9 mph 2.3 mph 59 % 0.00 in
05:14 34.6 °F 22.1 °F 29.96 in East 2.5 mph 3.5 mph 60 % 0.00 in
05:19 34.6 °F 21.7 °F 29.96 in East 2.8 mph 4.6 mph 59 % 0.00 in
05:24 34.7 °F 22.2 °F 29.96 in East 2.6 mph 4.6 mph 60 % 0.00 in
05:29 34.8 °F 21.9 °F 29.96 in East 2.9 mph 6.0 mph 59 % 0.00 in
05:34 34.8 °F 21.9 °F 29.96 in East 4.6 mph 6.9 mph 59 % 0.00 in
05:40 34.9 °F 22.4 °F 29.95 in East 3.8 mph 4.6 mph 60 % 0.00 in
05:45 34.9 °F 22.8 °F 29.95 in East 2.9 mph 4.6 mph 61 % 0.00 in
05:55 35.1 °F 23.0 °F 29.94 in East 1.4 mph 6.0 mph 61 % 0.00 in
06:00 35.1 °F 23.8 °F 29.94 in East 2.1 mph 3.5 mph 63 % 0.00 in
06:05 35.1 °F 23.4 °F 29.95 in NE 2.8 mph 4.6 mph 62 % 0.00 in
06:10 35.2 °F 24.2 °F 29.94 in East 3.9 mph 6.0 mph 64 % 0.00 in
06:15 35.4 °F 24.8 °F 29.94 in ESE 2.5 mph 5.0 mph 65 % 0.00 in
06:20 35.5 °F 24.9 °F 29.94 in East 2.2 mph 3.5 mph 65 % 0.00 in
06:25 35.5 °F 24.9 °F 29.94 in ENE 2.5 mph 4.0 mph 65 % 0.00 in
06:31 35.7 °F 25.4 °F 29.94 in East 1.9 mph 4.6 mph 66 % 0.00 in
06:36 35.8 °F 25.9 °F 29.94 in East 2.7 mph 3.5 mph 67 % 0.00 in
06:41 35.9 °F 26.4 °F 29.94 in East 3.0 mph 4.6 mph 68 % 0.00 in
06:46 36.1 °F 26.6 °F 29.94 in East 3.2 mph 4.6 mph 68 % 0.00 in
06:51 36.2 °F 27.0 °F 29.94 in ESE 3.1 mph 4.6 mph 69 % 0.00 in
06:56 36.4 °F 27.2 °F 29.93 in ESE 1.6 mph 4.6 mph 69 % 0.00 in
07:01 36.5 °F 27.3 °F 29.93 in East 2.1 mph 4.6 mph 69 % 0.00 in
07:06 36.5 °F 27.3 °F 29.93 in ENE 1.9 mph 3.0 mph 69 % 0.00 in
07:11 36.6 °F 27.7 °F 29.92 in East 2.9 mph 5.8 mph 70 % 0.00 in
07:16 36.7 °F 27.8 °F 29.93 in East 2.7 mph 5.0 mph 70 % 0.00 in
07:22 36.8 °F 28.3 °F 29.92 in East 2.2 mph 4.6 mph 71 % 0.00 in
07:27 36.9 °F 28.4 °F 29.92 in East 2.4 mph 4.6 mph 71 % 0.00 in
07:32 37.0 °F 28.8 °F 29.90 in East 4.7 mph 6.9 mph 72 % 0.00 in
07:37 37.1 °F 29.6 °F 29.91 in East 4.3 mph 5.8 mph 74 % 0.00 in
07:42 37.1 °F 30.6 °F 29.91 in ENE 3.6 mph 6.0 mph 77 % 0.00 in
07:47 37.2 °F 31.0 °F 29.91 in ENE 2.0 mph 3.5 mph 78 % 0.00 in
07:52 37.3 °F 31.4 °F 29.90 in East 2.3 mph 5.0 mph 79 % 0.00 in
07:57 37.5 °F 31.9 °F 29.89 in ENE 2.9 mph 4.6 mph 80 % 0.00 in
08:02 37.6 °F 32.6 °F 29.90 in ENE 4.4 mph 6.9 mph 82 % 0.00 in
08:07 37.7 °F 32.7 °F 29.90 in East 2.2 mph 4.6 mph 82 % 0.00 in
08:13 37.9 °F 33.5 °F 29.90 in East 3.9 mph 6.0 mph 84 % 0.00 in
08:18 38.0 °F 33.9 °F 29.90 in East 2.2 mph 5.8 mph 85 % 0.00 in
08:23 38.0 °F 34.2 °F 29.90 in ENE 0.3 mph 3.5 mph 86 % 0.00 in
08:28 38.1 °F 34.6 °F 29.89 in East 3.6 mph 6.0 mph 87 % 0.00 in
08:33 38.2 °F 35.0 °F 29.89 in East 3.2 mph 4.6 mph 88 % 0.00 in
08:38 38.1 °F 34.9 °F 29.90 in NE 0.5 mph 2.3 mph 88 % 0.00 in
08:43 38.1 °F 34.9 °F 29.88 in East 7.2 mph 9.2 mph 88 % 0.00 in
08:48 38.1 °F 35.1 °F 29.86 in East 8.1 mph 10.4 mph 89 % 0.00 in
08:53 38.0 °F 35.3 °F 29.88 in WNW 1.9 mph 3.5 mph 90 % 0.00 in
08:58 38.1 °F 35.4 °F 29.87 in ENE 4.2 mph 8.1 mph 90 % 0.00 in
09:04 38.2 °F 35.8 °F 29.85 in East 7.0 mph 9.2 mph 91 % 0.00 in
09:09 38.4 °F 36.0 °F 29.85 in ESE 5.6 mph 8.1 mph 91 % 0.00 in
09:14 38.7 °F 36.6 °F 29.85 in East 1.5 mph 6.9 mph 92 % 0.00 in
09:19 38.9 °F 36.8 °F 29.85 in East 0.6 mph 1.2 mph 92 % 0.00 in
09:24 39.0 °F 36.9 °F 29.85 in ENE 1.9 mph 3.0 mph 92 % 0.00 in
09:29 39.2 °F 37.1 °F 29.84 in ENE 3.7 mph 5.0 mph 92 % 0.00 in
09:34 39.3 °F 37.4 °F 29.84 in East 1.8 mph 3.5 mph 93 % 0.00 in
09:39 39.5 °F 37.4 °F 29.84 in East 1.9 mph 3.5 mph 92 % 0.00 in
09:44 39.6 °F 37.7 °F 29.83 in East 2.1 mph 3.5 mph 93 % 0.00 in
09:49 39.7 °F 37.8 °F 29.84 in East 1.4 mph 2.3 mph 93 % 0.00 in
09:55 39.8 °F 37.9 °F 29.84 in NE 2.8 mph 3.5 mph 93 % 0.00 in
10:05 39.9 °F 38.0 °F 29.83 in ENE 2.1 mph 3.5 mph 93 % 0.00 in
10:10 40.0 °F 38.1 °F 29.83 in ENE 4.4 mph 5.8 mph 93 % 0.00 in
10:15 40.1 °F 38.2 °F 29.82 in East 2.5 mph 4.0 mph 93 % 0.00 in
10:20 40.2 °F 38.3 °F 29.83 in ENE 3.5 mph 5.0 mph 93 % 0.00 in
10:25 40.3 °F 38.7 °F 29.82 in ENE 3.5 mph 4.6 mph 94 % 0.00 in
10:30 40.3 °F 38.7 °F 29.83 in ENE 2.5 mph 3.5 mph 94 % 0.00 in
10:35 40.4 °F 38.8 °F 29.83 in ENE 4.0 mph 8.1 mph 94 % 0.00 in
10:40 40.4 °F 38.8 °F 29.83 in NE 2.7 mph 5.8 mph 94 % 0.00 in
10:46 40.5 °F 38.9 °F 29.83 in East 4.6 mph 7.0 mph 94 % 0.00 in
10:51 40.8 °F 39.2 °F 29.82 in ENE 4.5 mph 8.1 mph 94 % 0.00 in
10:56 40.9 °F 39.3 °F 29.82 in ENE 3.5 mph 4.6 mph 94 % 0.00 in
11:01 41.1 °F 39.5 °F 29.81 in ENE 8.1 mph 11.5 mph 94 % 0.00 in
11:06 41.4 °F 39.8 °F 29.81 in ENE 7.6 mph 10.4 mph 94 % 0.00 in
11:11 41.7 °F 40.1 °F 29.81 in ENE 5.3 mph 8.1 mph 94 % 0.00 in
11:16 41.9 °F 40.3 °F 29.81 in ENE 4.7 mph 5.8 mph 94 % 0.00 in
11:21 42.2 °F 40.6 °F 29.81 in ENE 3.8 mph 8.1 mph 94 % 0.00 in
11:26 42.3 °F 40.7 °F 29.81 in ENE 2.5 mph 4.6 mph 94 % 0.00 in
11:31 42.4 °F 40.8 °F 29.81 in ENE 2.4 mph 4.6 mph 94 % 0.00 in
11:37 42.4 °F 40.8 °F 29.81 in NE 3.9 mph 6.0 mph 94 % 0.00 in
11:42 42.4 °F 40.8 °F 29.80 in ENE 6.2 mph 11.5 mph 94 % 0.00 in
11:47 42.4 °F 40.8 °F 29.81 in NE 4.7 mph 7.0 mph 94 % 0.00 in
11:52 42.4 °F 40.8 °F 29.80 in NE 5.0 mph 9.2 mph 94 % 0.00 in
11:57 42.4 °F 40.8 °F 29.80 in NE 8.1 mph 11.5 mph 94 % 0.00 in
12:02 42.3 °F 40.7 °F 29.81 in ENE 8.1 mph 15.0 mph 94 % 0.00 in
12:07 42.1 °F 40.5 °F 29.81 in ENE 7.0 mph 11.5 mph 94 % 0.00 in
12:12 41.9 °F 40.3 °F 29.79 in ENE 8.3 mph 10.4 mph 94 % 0.00 in
12:17 42.0 °F 40.7 °F 29.80 in ENE 5.0 mph 6.9 mph 95 % 0.00 in
12:22 41.9 °F 40.6 °F 29.80 in East 6.6 mph 11.5 mph 95 % 0.00 in
12:33 42.2 °F 40.9 °F 29.80 in ENE 5.8 mph 9.2 mph 95 % 0.00 in
12:38 42.2 °F 40.9 °F 29.79 in ENE 4.8 mph 10.4 mph 95 % 0.00 in
12:48 42.2 °F 40.9 °F 29.80 in NE 9.7 mph 13.0 mph 95 % 0.00 in
12:53 41.8 °F 40.5 °F 29.80 in NE 12.4 mph 18.4 mph 95 % 0.00 in
12:58 41.2 °F 39.9 °F 29.80 in NE 8.5 mph 15.0 mph 95 % 0.00 in
13:03 40.5 °F 38.9 °F 29.80 in ENE 7.6 mph 10.0 mph 94 % 0.00 in
13:08 39.9 °F 38.3 °F 29.81 in NE 6.0 mph 10.4 mph 94 % 0.00 in
13:13 39.4 °F 37.8 °F 29.82 in NNE 4.9 mph 9.2 mph 94 % 0.00 in
13:19 38.9 °F 37.3 °F 29.81 in ENE 8.7 mph 11.5 mph 94 % 0.00 in
13:24 38.3 °F 36.5 °F 29.81 in East 8.6 mph 12.7 mph 93 % 0.00 in
13:29 38.0 °F 36.4 °F 29.81 in ENE 5.1 mph 9.2 mph 94 % 0.00 in
13:34 38.0 °F 36.4 °F 29.80 in East 4.3 mph 8.1 mph 94 % 0.00 in
13:39 38.2 °F 36.9 °F 29.79 in ENE 4.6 mph 9.0 mph 95 % 0.00 in
13:44 38.7 °F 37.7 °F 29.80 in ENE 6.5 mph 11.5 mph 96 % 0.00 in
13:49 38.9 °F 37.9 °F 29.80 in NE 5.4 mph 8.0 mph 96 % 0.00 in
13:54 38.7 °F 37.4 °F 29.81 in ENE 8.1 mph 11.5 mph 95 % 0.00 in
13:59 38.1 °F 36.8 °F 29.80 in NE 8.3 mph 10.4 mph 95 % 0.00 in
14:05 37.8 °F 36.5 °F 29.80 in ENE 5.3 mph 10.4 mph 95 % 0.00 in
14:10 37.5 °F 36.2 °F 29.81 in East 6.6 mph 11.5 mph 95 % 0.00 in
14:15 37.2 °F 35.9 °F 29.81 in East 7.8 mph 11.5 mph 95 % 0.00 in
14:20 37.0 °F 35.7 °F 29.81 in ENE 7.4 mph 12.0 mph 95 % 0.00 in
14:25 36.9 °F 35.6 °F 29.81 in East 6.4 mph 10.4 mph 95 % 0.00 in
14:35 36.5 °F 35.2 °F 29.81 in ENE 5.3 mph 10.4 mph 95 % 0.00 in
14:40 36.4 °F 35.1 °F 29.81 in ENE 6.7 mph 10.4 mph 95 % 0.00 in
14:45 36.3 °F 35.0 °F 29.81 in East 5.8 mph 11.5 mph 95 % 0.00 in
14:50 36.1 °F 34.8 °F 29.82 in ENE 9.1 mph 11.5 mph 95 % 0.00 in
15:01 36.0 °F 34.7 °F 29.81 in ENE 7.0 mph 11.5 mph 95 % 0.00 in
15:06 35.9 °F 34.6 °F 29.81 in ENE 10.4 mph 14.0 mph 95 % 0.00 in
15:11 35.8 °F 34.8 °F 29.82 in ENE 4.2 mph 10.4 mph 96 % 0.00 in
15:16 35.8 °F 34.5 °F 29.82 in NE 7.6 mph 10.4 mph 95 % 0.00 in
15:21 35.8 °F 34.8 °F 29.82 in ENE 9.3 mph 11.5 mph 96 % 0.00 in
15:26 35.8 °F 34.8 °F 29.81 in East 9.5 mph 12.7 mph 96 % 0.00 in
15:31 35.8 °F 34.8 °F 29.81 in ENE 7.0 mph 11.5 mph 96 % 0.00 in
15:36 35.8 °F 34.8 °F 29.80 in ENE 11.3 mph 12.7 mph 96 % 0.00 in
15:41 35.8 °F 34.8 °F 29.81 in NE 6.9 mph 12.7 mph 96 % 0.00 in
15:47 35.8 °F 34.8 °F 29.80 in ENE 9.5 mph 10.0 mph 96 % 0.00 in
15:52 35.7 °F 34.7 °F 29.82 in ENE 3.7 mph 9.2 mph 96 % 0.00 in
15:57 35.6 °F 34.6 °F 29.82 in ENE 6.8 mph 12.7 mph 96 % 0.00 in
16:02 35.5 °F 34.5 °F 29.82 in NE 6.9 mph 10.4 mph 96 % 0.00 in
16:07 35.3 °F 34.3 °F 29.82 in NE 8.7 mph 11.5 mph 96 % 0.00 in
16:12 35.1 °F 33.8 °F 29.82 in NE 8.2 mph 10.4 mph 95 % 0.00 in
16:17 35.0 °F 34.0 °F 29.82 in NE 7.0 mph 13.0 mph 96 % 0.00 in
16:22 34.9 °F 33.9 °F 29.82 in ENE 10.6 mph 12.7 mph 96 % 0.00 in
16:27 34.7 °F 33.7 °F 29.83 in ENE 7.4 mph 11.5 mph 96 % 0.00 in
16:32 34.6 °F 33.3 °F 29.83 in ENE 7.2 mph 8.1 mph 95 % 0.00 in
16:38 34.6 °F 33.3 °F 29.83 in East 7.0 mph 10.4 mph 95 % 0.00 in
16:43 34.6 °F 33.3 °F 29.83 in ENE 8.2 mph 8.2 mph 95 % 0.00 in
16:48 34.4 °F 33.1 °F 29.83 in ENE 7.5 mph 11.5 mph 95 % 0.00 in
16:53 34.3 °F 33.0 °F 29.83 in NE 8.7 mph 11.5 mph 95 % 0.00 in
16:58 34.3 °F 33.0 °F 29.83 in NE 7.4 mph 11.5 mph 95 % 0.00 in
17:03 34.2 °F 32.9 °F 29.83 in ENE 9.1 mph 11.5 mph 95 % 0.00 in
17:08 34.1 °F 33.1 °F 29.83 in ENE 6.6 mph 10.4 mph 96 % 0.00 in
17:13 34.1 °F 32.8 °F 29.84 in NE 8.0 mph 12.7 mph 95 % 0.00 in
17:18 34.0 °F 32.7 °F 29.84 in NE 5.6 mph 11.5 mph 95 % 0.00 in
17:23 34.0 °F 32.7 °F 29.85 in NNE 4.3 mph 8.1 mph 95 % 0.00 in
17:29 34.1 °F 33.1 °F 29.85 in NNE 5.2 mph 8.0 mph 96 % 0.00 in
17:34 34.1 °F 33.1 °F 29.85 in NNE 6.9 mph 9.2 mph 96 % 0.00 in
17:39 34.1 °F 33.1 °F 29.85 in ENE 5.5 mph 11.5 mph 96 % 0.00 in
17:44 34.0 °F 33.0 °F 29.85 in ENE 6.8 mph 9.2 mph 96 % 0.00 in
17:49 34.0 °F 33.0 °F 29.86 in NNE 5.5 mph 9.2 mph 96 % 0.00 in
17:54 34.0 °F 33.0 °F 29.85 in NNE 7.3 mph 11.0 mph 96 % 0.00 in
17:59 33.9 °F 32.9 °F 29.86 in NNE 7.5 mph 11.5 mph 96 % 0.00 in
18:04 33.8 °F 32.8 °F 29.86 in NNE 7.2 mph 12.7 mph 96 % 0.00 in
18:09 33.7 °F 32.4 °F 29.87 in NNE 9.0 mph 14.0 mph 95 % 0.00 in
18:14 33.6 °F 32.3 °F 29.87 in NNE 6.8 mph 10.4 mph 95 % 0.00 in
18:20 33.5 °F 32.2 °F 29.87 in NE 7.0 mph 10.0 mph 95 % 0.00 in
18:30 33.2 °F 31.9 °F 29.88 in NNE 9.0 mph 15.0 mph 95 % 0.00 in
18:40 33.0 °F 31.7 °F 29.88 in NE 7.5 mph 15.0 mph 95 % 0.00 in
18:45 32.8 °F 31.5 °F 29.88 in NNE 10.0 mph 13.8 mph 95 % 0.00 in
18:50 32.6 °F 31.3 °F 29.89 in North 7.8 mph 11.5 mph 95 % 0.00 in
18:55 32.6 °F 31.3 °F 29.89 in North 6.8 mph 9.2 mph 95 % 0.00 in
19:00 32.5 °F 31.2 °F 29.89 in NNW 10.2 mph 15.0 mph 95 % 0.00 in
19:05 32.4 °F 31.1 °F 29.90 in NNE 7.2 mph 12.0 mph 95 % 0.01 in
19:11 32.3 °F 31.0 °F 29.91 in NNE 9.2 mph 9.2 mph 95 % 0.01 in
19:16 32.2 °F 30.9 °F 29.91 in NE 10.0 mph 17.3 mph 95 % 0.01 in
19:21 32.0 °F 30.5 °F 29.92 in North 8.4 mph 15.0 mph 94 % 0.01 in
19:26 31.9 °F 30.4 °F 29.93 in NE 3.1 mph 6.0 mph 94 % 0.01 in
19:31 31.9 °F 30.6 °F 29.93 in NNE 4.4 mph 8.1 mph 95 % 0.01 in
19:36 31.9 °F 30.6 °F 29.93 in NNE 7.7 mph 10.4 mph 95 % 0.01 in
19:41 31.8 °F 30.5 °F 29.93 in NE 9.7 mph 12.7 mph 95 % 0.01 in
19:46 31.7 °F 30.2 °F 29.94 in NNE 6.6 mph 8.0 mph 94 % 0.01 in
19:51 31.7 °F 30.2 °F 29.94 in NNE 8.4 mph 12.7 mph 94 % 0.02 in
19:56 31.6 °F 30.1 °F 29.94 in North 8.1 mph 11.5 mph 94 % 0.02 in
20:02 31.5 °F 30.0 °F 29.95 in NE 9.7 mph 15.0 mph 94 % 0.02 in
20:12 31.3 °F 29.8 °F 29.96 in NE 8.4 mph 12.7 mph 94 % 0.02 in
20:17 31.2 °F 29.7 °F 29.96 in North 8.1 mph 11.5 mph 94 % 0.02 in
20:22 31.2 °F 29.7 °F 29.96 in NE 9.8 mph 13.0 mph 94 % 0.02 in
20:27 31.2 °F 29.7 °F 29.96 in NNE 7.6 mph 11.0 mph 94 % 0.02 in
20:32 31.1 °F 29.6 °F 29.96 in NE 10.7 mph 17.3 mph 94 % 0.03 in
20:37 31.0 °F 29.5 °F 29.97 in North 8.6 mph 15.0 mph 94 % 0.03 in
20:47 30.7 °F 28.9 °F 29.97 in NNE 9.4 mph 15.0 mph 93 % 0.03 in
20:53 30.7 °F 28.7 °F 29.97 in NE 12.4 mph 16.1 mph 92 % 0.03 in
20:58 30.6 °F 28.6 °F 29.98 in NE 9.6 mph 16.1 mph 92 % 0.03 in
21:03 30.6 °F 28.6 °F 29.98 in NE 11.5 mph 17.3 mph 92 % 0.03 in
21:08 30.6 °F 28.3 °F 29.98 in NNE 9.8 mph 15.0 mph 91 % 0.03 in
21:13 30.5 °F 28.2 °F 29.98 in NNE 10.0 mph 13.8 mph 91 % 0.02 in
21:18 30.5 °F 28.2 °F 29.99 in NNE 11.2 mph 16.1 mph 91 % 0.03 in
21:23 30.5 °F 27.9 °F 29.99 in NNE 10.1 mph 16.1 mph 90 % 0.03 in
21:28 30.5 °F 27.9 °F 29.99 in NE 8.8 mph 13.8 mph 90 % 0.03 in
21:33 30.5 °F 27.9 °F 30.00 in NNE 12.3 mph 17.3 mph 90 % 0.02 in
21:38 30.5 °F 27.9 °F 29.99 in North 10.2 mph 12.7 mph 90 % 0.02 in
21:44 30.5 °F 27.6 °F 30.00 in North 9.3 mph 17.3 mph 89 % 0.03 in
21:49 30.5 °F 27.6 °F 30.00 in NNE 10.7 mph 16.1 mph 89 % 0.03 in
21:54 30.5 °F 27.6 °F 30.00 in North 12.2 mph 19.6 mph 89 % 0.02 in
21:59 30.4 °F 27.3 °F 29.99 in NNE 10.9 mph 16.1 mph 88 % 0.02 in
22:04 30.4 °F 27.5 °F 29.99 in North 9.7 mph 13.8 mph 89 % 0.02 in
22:09 30.5 °F 27.6 °F 30.00 in NE 8.0 mph 15.0 mph 89 % 0.03 in
22:14 30.4 °F 27.3 °F 30.00 in NNE 8.4 mph 13.8 mph 88 % 0.03 in
22:19 30.4 °F 27.3 °F 30.00 in NNE 9.2 mph 16.1 mph 88 % 0.02 in
22:24 30.4 °F 27.3 °F 30.01 in NNE 10.2 mph 19.6 mph 88 % 0.02 in
22:29 30.3 °F 26.9 °F 30.01 in North 11.7 mph 16.1 mph 87 % 0.02 in
22:35 30.3 °F 26.9 °F 30.01 in NNE 9.3 mph 13.8 mph 87 % 0.02 in
22:40 30.3 °F 26.9 °F 30.01 in North 7.8 mph 13.8 mph 87 % 0.01 in
22:45 30.3 °F 26.9 °F 30.01 in NNE 8.3 mph 13.0 mph 87 % 0.01 in
22:50 30.2 °F 26.5 °F 30.02 in NNE 7.9 mph 12.7 mph 86 % 0.01 in
22:55 30.2 °F 26.8 °F 30.02 in NNE 7.3 mph 13.0 mph 87 % 0.01 in
23:00 30.1 °F 26.4 °F 30.02 in NE 8.8 mph 15.0 mph 86 % 0.01 in
23:05 30.1 °F 26.4 °F 30.02 in NNE 9.6 mph 11.5 mph 86 % 0.02 in
23:10 30.2 °F 26.8 °F 30.02 in NNE 7.4 mph 11.5 mph 87 % 0.01 in
23:15 30.2 °F 26.5 °F 30.02 in NNE 8.6 mph 12.7 mph 86 % 0.01 in
23:20 30.2 °F 26.5 °F 30.03 in NNE 4.5 mph 9.2 mph 86 % 0.01 in
23:26 30.1 °F 26.4 °F 30.03 in NNE 7.7 mph 16.1 mph 86 % 0.01 in
23:31 30.1 °F 26.1 °F 30.03 in North 8.0 mph 13.8 mph 85 % 0.01 in
23:36 30.1 °F 26.1 °F 30.03 in North 7.9 mph 13.8 mph 85 % 0.01 in
23:41 30.1 °F 26.1 °F 30.03 in North 11.6 mph 17.3 mph 85 % 0.01 in
23:46 30.0 °F 26.0 °F 30.04 in North 10.1 mph 16.1 mph 85 % 0.01 in
23:51 30.1 °F 26.1 °F 30.03 in NNE 11.4 mph 18.4 mph 85 % 0.01 in
23:56 30.1 °F 26.1 °F 30.04 in NE 10.9 mph 13.8 mph 85 % 0.01 in
Crab Meadow Weather
Compliments of Weather Underground - 2.75 mb

Script developed by  Jim McMurry - jmcmurry@mwt.net Adapted for the template by  Wim van der Kuil - Leuven-Template.eu

Lightning: The average number of deaths from lightning is more than 100 a year with several more deaths from lightning related fires. Lightning injuries account for 3-5 times than those of lightning deaths.